Weather History for Palacios, TX

Change the Weather History Date:

Thursday, March 7, 2013

  Actual Average Record
Temperature  
Mean Temperature 59 °F -  
Max Temperature 72 °F 70 °F 84 °F (1983)
Min Temperature 46 °F 49 °F 28 °F (1989)
Degree Days  
Heating Degree Days 6    
Growing Degree Days 9 (Base 50)    
Moisture  
Dew Point 49 °F    
Average Humidity 70    
Maximum Humidity 90    
Minimum Humidity 47    
Precipitation  
Precipitation 0.00 in - - ()
Sea Level Pressure  
Sea Level Pressure 30.20 in    
Wind  
Wind Speed 8 mph (ESE)    
Max Wind Speed 21 mph    
Max Gust Speed 26 mph    
Visibility 10 miles    
Events      
Averages and records for this station are not official NWS values.
T = Trace of Precipitation, MM = Missing Value Source: NWS Daily Summary

Daily Weather History Graph

Daily Weather History Graph

Search for Another Location

Airport:

Trip Planner

Search our weather history database for the weather conditions in past years. The results will help you decide how hot, cold, wet, or windy it might be!

Date:

Astronomy

Mar. 07, 2013 Rise Set
Actual Time 6:43 AM CST 6:28 PM CST
Civil Twilight 6:19 AM CST 6:52 PM CST
Nautical Twilight 5:52 AM CST 7:19 PM CST
Astronomical Twilight 5:24 AM CST 7:47 PM CST
Moon 3:26 AM CST (3/7) 2:33 PM CST (3/7)
Length of Visible Light 12h 32m
Length of Day
11h 45m
Waning Crescent, 20% of the Moon is Illuminated
Mar 7
Waning Crescent
Mar 11
New
Mar 19
First Quarter
Mar 27
Full
Apr 2
Last Quarter

Hourly Weather History & Observations

Time (CST) Temp. Windchill Dew Point Humidity Pressure Visibility Wind Dir Wind Speed Gust Speed Precip Events Conditions
12:53 AM 48.9 °F - 44.1 °F 83% 30.25 in 10.0 mi Calm Calm - N/A   Clear
1:53 AM 48.0 °F - 43.0 °F 83% 30.24 in 10.0 mi Calm Calm - N/A   Clear
2:53 AM 46.9 °F - 42.1 °F 83% 30.21 in 10.0 mi East 3.5 mph - N/A   Clear
3:53 AM 46.9 °F - 43.0 °F 86% 30.18 in 10.0 mi East 5.8 mph - N/A   Clear
4:53 AM 46.9 °F - 43.0 °F 86% 30.19 in 10.0 mi ENE 8.1 mph - N/A   Clear
5:53 AM 46.0 °F 41.9 °F 42.1 °F 86% 30.18 in 10.0 mi East 8.1 mph - N/A   Clear
6:53 AM 46.9 °F - 44.1 °F 90% 30.21 in 10.0 mi East 6.9 mph - N/A   Clear
7:53 AM 57.0 °F - 52.0 °F 83% 30.22 in 10.0 mi East 8.1 mph - N/A   Clear
8:53 AM 61.0 °F - 53.1 °F 75% 30.25 in 10.0 mi East 9.2 mph - N/A   Clear
9:53 AM 68.0 °F - 52.0 °F 56% 30.25 in 10.0 mi ESE 15.0 mph - N/A   Clear
10:53 AM 70.0 °F - 51.1 °F 51% 30.26 in 10.0 mi SE 16.1 mph 24.2 mph N/A   Clear
11:53 AM 70.0 °F - 51.1 °F 51% 30.25 in 10.0 mi ESE 15.0 mph 26.5 mph N/A   Partly Cloudy
12:53 PM 72.0 °F - 51.1 °F 48% 30.22 in 10.0 mi ESE 20.7 mph 24.2 mph N/A   Clear
1:53 PM 70.0 °F - 50.0 °F 49% 30.20 in 10.0 mi ESE 17.3 mph 24.2 mph N/A   Mostly Cloudy
2:53 PM 70.0 °F - 48.9 °F 47% 30.18 in 10.0 mi ESE 19.6 mph 26.5 mph N/A   Clear
3:53 PM 69.1 °F - 48.9 °F 49% 30.17 in 10.0 mi ESE 17.3 mph - N/A   Clear
4:53 PM 68.0 °F - 51.1 °F 55% 30.16 in 10.0 mi ESE 19.6 mph 24.2 mph N/A   Clear
5:53 PM 66.0 °F - 52.0 °F 60% 30.17 in 10.0 mi ESE 15.0 mph - N/A   Unknown
6:53 PM 63.0 °F - 51.1 °F 65% 30.19 in 10.0 mi ESE 9.2 mph - N/A   Clear
7:53 PM 60.1 °F - 52.0 °F 75% 30.19 in 10.0 mi East 9.2 mph - N/A   Clear
8:53 PM 57.9 °F - 52.0 °F 81% 30.19 in 10.0 mi East 6.9 mph - N/A   Clear
9:53 PM 59.0 °F - 54.0 °F 83% 30.19 in 10.0 mi East 8.1 mph - N/A   Clear
10:53 PM 59.0 °F - 54.0 °F 83% 30.19 in 10.0 mi East 6.9 mph - N/A   Clear
11:53 PM 59.0 °F - 54.0 °F 83% 30.18 in 10.0 mi ESE 5.8 mph - N/A   Clear